Regional Weather Roundup
Issued by NWS

Home | Current Version | Previous Version | Graphics & Text | Print | Product List | Glossary On
Versions: 1 2 3 4 5 6 7 8 9 10 11 12 13 14 15 16 17 18 19 20 21 22 23 24 25 26 27 28 29 30 31 32 33 34 35 36 37 38 39 40 41 42 43 44 45 46 47 48 49 50
000
ASUS43 KDMX 230201
RWRIA

WEATHER ROUNDUP FOR IOWA
NATIONAL WEATHER SERVICE DES MOINES IA
900 PM CDT FRI SEP 22 2017

NOTE: "FAIR" INDICATES FEW OR NO CLOUDS BELOW 12,000 FEET WITH NO
SIGNIFICANT WEATHER AND/OR OBSTRUCTIONS TO VISIBILITY.

* - THESE STATIONS ARE NOT NWS STATIONS...THUS NOT UNDER NWS
QUALITY CONTROL.  THEY ALSO DO NOT REPORT WEATHER SUCH
AS PRECIPITATION OR FOG.

IAZ001>003-012>014-020>022-031>034-043>046-230300-
   NORTHWEST IOWA

CITY           SKY/WX    TMP DP  RH WIND       PRES   REMARKS
CARROLL *      CLOUDY    81  68  65 S10G17    29.90R HX  83
CHEROKEE *     PTCLDY    81  67  62 S14G23    29.84R HX  83
DENISON *      PTCLDY    81  68  65 S14G21    29.89R HX  83
LE MARS *      MOCLDY    84  68  58 S21G29    29.78S HX  87
ORANGE CITY *  MOCLDY    84  70  61 S16G26    29.80R HX  88
SHELDON *      PTCLDY    81  68  65 S13G25    29.79S HX  83
SIOUX CITY     CLOUDY    83  69  62 S16G23    29.79R HX  86
SPENCER        CLOUDY    82  67  60 S16G25    29.84R HX  84
STORM LAKE *   PTCLDY    79  68  69 S13       29.88R HX  81
$$

IAZ055>058-069>071-079>083-090>094-230300-
   SOUTHWEST IOWA

CITY           SKY/WX    TMP DP  RH WIND       PRES   REMARKS
ATLANTIC *     CLEAR     81  68  65 S10       29.90R HX  83
AUDUBON *      CLEAR     79  70  73 S6        29.92R HX  81
CLARINDA *     CLEAR     77  70  78 S6        29.94R
COUNCIL BLFS * CLEAR     81  70  69 S15       29.88R HX  84
CRESTON *      CLEAR     77  68  73 S8        29.96R
HARLAN  *      CLOUDY    81  70  69 S13G18    29.92R HX  84
LAMONI         CLEAR     79  68  69 S8        29.96R HX  81
RED OAK *      CLEAR     81  70  69 S9        29.90R HX  84
SHENANDOAH *   CLEAR     81  68  65 S10       29.90R HX  83
$$

IAZ047>049-059>061-072>074-084-230300-
   CENTRAL IOWA

CITY           SKY/WX    TMP DP  RH WIND       PRES   REMARKS
AMES           CLEAR     76  69  79 SE6       29.93R
ANKENY *       CLEAR     79  68  69 S6        29.93S HX  81
BOONE *        CLEAR     77  68  73 SE7       29.92R
CHARITON *     CLEAR     77  68  73 S9        29.95R
DES MOINES     PTCLDY    80  67  64 SE9       29.92R HX  82
GRINNELL*      CLEAR     77  66  70 SE5       29.97R
KNOXVILLE *    CLEAR     77  66  69 SE6       29.94R
MARSHALLTOWN   CLEAR     77  69  76 S7        29.94R
NEWTON *       CLEAR     77  66  69 S6        29.95R
PELLA *        CLEAR     79  66  63 SE6       29.96R HX  81
PERRY *          N/A     75  69  80 SE7       29.92R
$$

IAZ004>006-015-016-023>025-035-036-230300-
   NORTH CENTRAL IOWA

CITY           SKY/WX    TMP DP  RH WIND       PRES   REMARKS
ALGONA *       CLEAR     82  68  61 S16G23    29.88R HX  85
CLARION *      CLEAR     79  70  73 S12       29.92R HX  81
ESTHERVILLE    CLEAR     79  67  66 S15       29.85R HX  81
FORT DODGE *   PTCLDY    83  68  60 S12G22    29.91R HX  86
MASON CITY     CLEAR     79  67  66 S15       29.93R HX  81
FOREST CITY *    N/A     79  68  69 S12       29.90R HX  81
WEBSTER CITY * CLEAR     79  68  69 S9        29.90R HX  81
IOWA FALLS *     N/A     80  68  68 SE8       29.95R HX  82
$$

IAZ007>011-017>019-026>030-037>042-050>054-066-230300-
   NORTHEAST IOWA

CITY           SKY/WX    TMP DP  RH WIND       PRES   REMARKS
CEDAR RAPIDS   CLEAR     78  67  68 S5        29.97R HX  80
CHARLES CITY * CLEAR     79  68  69 S9        29.95R HX  81
CLINTON *      CLEAR    N/A N/A N/A S6        30.01R
DECORAH *      CLEAR     79  66  65 S6G13     29.96R HX  81
DUBUQUE        CLEAR     76  66  71 S10       30.01R
MONTICELLO *   CLEAR     75  66  73 SE5       29.98S
OELWEIN *      CLEAR     75  68  78 SE7       29.98R
WATERLOO       CLEAR     80  65  59 S9        29.94R HX  82
$$

IAZ064-065-067-068-078-230300-
   EAST CENTRAL IOWA

CITY           SKY/WX    TMP DP  RH WIND       PRES   REMARKS
DAVENPORT      CLEAR     75  66  73 SE7       30.02R
IOWA CITY      CLEAR     78  67  68 SE5       29.98S HX  80
MUSCATINE *    CLEAR     75  70  83 CALM      29.99R
QUAD CITIES    CLEAR     74  66  76 CALM      29.99R
$$

IAZ062-063-075>077-085>089-095>099-230300-
   SOUTHEAST IOWA

CITY           SKY/WX    TMP DP  RH WIND       PRES   REMARKS
BURLINGTON     CLEAR     77  66  68 SE5       29.99R
FAIRFIELD *    CLEAR     75  64  69 SE7       29.98R
FORT MADISON * CLEAR     81  64  57 SE5       30.00S HX  82
KEOKUK *       CLEAR     79  64  61 SE6       29.98S HX  81
OSKALOOSA *      N/A     75  67  76 SE6       29.97R
OTTUMWA        CLEAR     78  67  68 SE8       29.96R HX  80
WASHINGTON *   CLEAR     75  68  78 S6        29.99S
$$

ABBREVIATIONS USED IN REMARKS
   TC - TEMPERATURES IN CELSIUS
  WCI - WIND CHILL INDEX
   HX - HEAT INDEX
  VSB - VISIBILITY
$$





USA.gov is the U.S. government's official web portal to all federal, state and local government web resources and services.